CW0214 Weather Reports


time (UTC)temp
C
wind
direction
speed
KPH
gust
KPH
rain 1hr
cm
rain 24hr
cm
rain mn
cm
humidity
%
barometer
mb
20260503213904 13 137 1.6 11.3 0.00 0.23 0.23 88 1016.3
20260503212904 13 111 0.0 8.0 0.00 0.23 0.23 88 1016.3
20260503212404 13 103 0.0 8.0 0.00 0.23 0.23 88 1016.2
20260503211904 13 120 0.0 12.9 0.00 0.23 0.23 87 1016.1
20260503211404 13 82 3.2 14.5 0.00 0.23 0.23 87 1016.1
20260503210904 13 116 4.8 11.3 0.00 0.23 0.23 87 1016.0
20260503205904 13 119 1.6 14.5 0.00 0.23 0.23 87 1016.0
20260503205404 13 136 1.6 16.1 0.00 0.23 0.23 87 1015.9
20260503204904 13 125 0.0 14.5 0.00 0.23 0.23 86 1015.9
20260503204405 13 116 6.4 14.5 0.00 0.23 0.23 86 1015.9
20260503203905 13 154 4.8 12.9 0.00 0.23 0.23 86 1015.7
20260503203404 13 113 3.2 14.5 0.00 0.23 0.23 86 1015.7
20260503202905 13 83 3.2 9.7 0.00 0.23 0.23 86 1015.6
20260503202404 13 118 8.0 16.1 0.00 0.23 0.23 86 1015.5
20260503201904 14 156 3.2 12.9 0.00 0.23 0.23 86 1015.4
20260503201405 14 128 1.6 11.3 0.00 0.23 0.23 86 1015.3
20260503200404 14 158 0.0 16.1 0.00 0.23 0.23 86 1015.1
20260503195404 14 107 0.0 8.0 0.00 0.23 0.23 86 1015.1
20260503194904 14 149 1.6 8.0 0.00 0.23 0.23 85 1015.0
20260503194404 14 117 0.0 0.0 0.00 0.23 0.23 85 1015.1
20260503193904 14 117 1.6 11.3 0.00 0.23 0.23 84 1015.0
20260503193404 15 131 0.0 0.0 0.00 0.23 0.23 84 1015.0
20260503192905 15 124 1.6 11.3 0.00 0.23 0.23 84 1014.9
20260503191405 15 98 0.0 9.7 0.00 0.23 0.23 83 1014.8
20260503190906 15 97 1.6 11.3 0.00 0.23 0.23 83 1014.8
20260503190405 15 68 3.2 16.1 0.00 0.23 0.23 83 1014.7
20260503184905 15 51 0.0 8.0 0.00 0.23 0.23 84 1014.5
20260503184405 16 77 4.8 12.9 0.00 0.23 0.23 84 1014.5
20260503183906 16 93 4.8 11.3 0.00 0.23 0.23 84 1014.5
20260503183405 16 142 1.6 16.1 0.00 0.23 0.23 84 1014.3
20260503182905 16 135 6.4 12.9 0.00 0.23 0.23 84 1014.4
20260503182405 16 108 3.2 9.7 0.00 0.23 0.23 85 1014.3
20260503181906 16 108 0.0 3.2 0.00 0.23 0.23 86 1014.4
20260503181405 16 114 1.6 9.7 0.00 0.23 0.23 87 1014.4
20260503180905 16 129 4.8 12.9 0.05 0.23 0.23 88 1014.3
20260503175905 16 74 0.0 4.8 0.05 0.23 0.23 88 1014.4
20260503175405 15 74 0.0 0.0 0.08 0.23 0.23 88 1014.4
20260503174905 15 74 0.0 0.0 0.08 0.23 0.23 89 1014.4
20260503174405 16 74 0.0 0.0 0.08 0.23 0.23 88 1014.4
20260503173905 15 188 0.0 4.8 0.10 0.23 0.23 88 1014.4
20260503172905 15 137 0.0 4.8 0.15 0.23 0.23 88 1014.3
20260503172406 15 136 0.0 4.8 0.15 0.23 0.23 89 1014.4
20260503171905 15 136 0.0 3.2 0.15 0.23 0.23 89 1014.4
20260503171405 15 186 0.0 4.8 0.23 0.23 0.23 88 1014.2
20260503150905 18 117 8.0 16.1 0.00 0.00 0.00 68 1014.2
20260503130405 18 124 4.8 14.5 0.00 0.00 0.00 67 1014.9
20260503110405 18 58 4.8 12.9 0.00 0.00 0.00 64 1015.4
20260503090405 15 122 1.6 8.0 0.00 0.00 0.00 87 1016.0
20260503081405 13 152 1.6 8.0 0.00 0.00 0.00 95 1016.1
20260503080904 13 168 0.0 0.0 0.00 0.00 0.00 95 1016.0
20260503072905 12 171 0.0 3.2 0.00 0.00 0.00 95 1015.8
20260503072405 12 171 0.0 3.2 0.00 0.00 0.00 95 1015.9
20260503071905 12 171 1.6 3.2 0.00 0.00 0.00 95 1015.8
20260503071405 12 171 0.0 0.0 0.00 0.00 0.00 95 1015.8
20260503070905 12 171 0.0 1.6 0.00 0.00 0.00 95 1015.8
20260503070405 12 171 0.0 0.0 0.00 0.00 0.00 95 1015.7
20260503054905 12 97 0.0 0.0 0.00 0.00 0.00 94 1015.3
20260503054404 12 97 0.0 0.0 0.00 0.00 0.00 94 1015.3
20260503053904 12 97 0.0 0.0 0.00 0.00 0.00 94 1015.3
20260503053405 12 97 0.0 0.0 0.00 0.00 0.00 94 1015.3
20260503052905 12 97 0.0 0.0 0.00 0.00 0.00 94 1015.3
20260503052405 12 97 0.0 0.0 0.00 0.00 0.00 94 1015.2
20260503051905 12 97 0.0 0.0 0.00 0.00 0.00 94 1015.2
20260503051405 12 97 0.0 0.0 0.00 0.00 0.00 94 1015.2
20260503050905 12 97 0.0 0.0 0.00 0.00 0.00 94 1015.3
20260503050405 12 97 0.0 0.0 0.00 0.00 0.00 94 1015.2
20260503045904 11 97 0.0 0.0 0.00 0.00 0.00 94 1015.1
20260503045405 12 97 0.0 0.0 0.00 0.00 0.00 93 1015.0
20260503044905 12 97 0.0 0.0 0.00 0.00 0.00 93 1015.1
20260503044405 12 97 0.0 0.0 0.00 0.00 0.00 93 1015.1
20260503043405 12 97 0.0 0.0 0.00 0.00 0.00 93 1015.0
20260503042905 12 97 0.0 0.0 0.00 0.00 0.00 93 1015.0
20260503041904 12 97 0.0 0.0 0.00 0.00 0.00 93 1015.1
20260503041405 12 97 0.0 0.0 0.00 0.00 0.00 93 1015.1
20260503040906 12 97 0.0 0.0 0.00 0.00 0.00 93 1015.2
20260503040404 12 97 0.0 0.0 0.00 0.00 0.00 92 1015.2
20260503035404 12 97 0.0 0.0 0.00 0.00 0.00 93 1015.2
20260503034905 12 97 0.0 1.6 0.00 0.00 0.00 93 1015.2
20260503034405 12 97 0.0 3.2 0.00 0.00 0.00 93 1015.2
20260503033405 12 97 0.0 0.0 0.00 0.00 0.00 92 1015.2
20260503032905 12 97 0.0 0.0 0.00 0.00 0.00 92 1015.4
20260503031905 13 97 0.0 1.6 0.00 0.00 0.00 92 1015.4
20260503031405 13 97 0.0 0.0 0.00 0.00 0.00 91 1015.4
20260503030904 13 97 0.0 0.0 0.00 0.00 0.00 91 1015.4
20260503030405 13 97 0.0 0.0 0.00 0.00 0.00 91 1015.4
20260503025904 13 97 0.0 4.8 0.00 0.00 0.00 91 1015.4
20260503025405 13 97 0.0 1.6 0.00 0.00 0.00 91 1015.4
20260503024905 13 97 0.0 4.8 0.00 0.00 0.00 91 1015.6
20260503024405 13 97 0.0 4.8 0.00 0.00 0.00 91 1015.6
20260503023906 13 97 0.0 1.6 0.00 0.00 0.00 91 1015.7
20260503023404 13 97 0.0 3.2 0.00 0.00 0.00 91 1015.7
20260503022904 13 97 0.0 3.2 0.00 0.00 0.00 91 1015.7
20260503022405 13 97 1.6 4.8 0.00 0.00 0.00 91 1015.7
20260503021405 13 97 0.0 0.0 0.00 0.00 0.00 90 1015.8
20260503020404 13 97 0.0 0.0 0.00 0.00 0.00 90 1015.8
20260503013904 13 97 0.0 1.6 0.00 0.00 0.00 90 1015.9
20260503013405 13 97 1.6 3.2 0.00 0.00 0.00 90 1016.0
20260503012905 13 97 0.0 0.0 0.00 0.00 0.00 90 1016.0
20260503012405 13 97 0.0 0.0 0.00 0.00 0.00 90 1016.0
20260503011905 13 97 0.0 0.0 0.00 0.00 0.00 90 1016.1
20260503011405 13 97 0.0 0.0 0.00 0.00 0.00 90 1016.1
20260503010905 13 97 0.0 0.0 0.00 0.00 0.00 89 1016.2
20260503005905 14 97 0.0 1.6 0.00 0.00 0.00 89 1016.2
20260503005405 14 97 0.0 4.8 0.00 0.00 0.00 89 1016.3
20260503004905 14 97 0.0 3.2 0.00 0.00 0.00 89 1016.3
20260503004404 14 97 0.0 0.0 0.00 0.00 0.00 88 1016.3
20260503003905 14 97 0.0 0.0 0.00 0.00 0.00 89 1016.4
20260503003405 14 97 0.0 0.0 0.00 0.00 0.00 88 1016.4
20260503002905 14 97 0.0 0.0 0.00 0.00 0.00 89 1016.5
20260503002406 14 97 0.0 1.6 0.00 0.00 0.00 88 1016.5
20260503001905 14 97 0.0 3.2 0.00 0.00 0.00 88 1016.5
20260503000905 14 97 0.0 0.0 0.00 0.00 0.00 88 1016.5
20260503000404 14 97 0.0 0.0 0.00 0.00 0.00 88 1016.6
20260502235906 14 97 0.0 0.0 0.00 0.00 0.00 88 1016.6
20260502234904 15 97 1.6 4.8 0.00 0.00 0.00 87 1016.7
20260502233905 15 97 0.0 4.8 0.00 0.00 0.00 87 1016.8
20260502233405 15 97 1.6 4.8 0.00 0.00 0.00 87 1016.8
20260502232905 15 97 1.6 4.8 0.00 0.00 0.00 86 1016.8
20260502232404 15 98 3.2 11.3 0.00 0.00 0.00 86 1016.8
20260502231905 15 84 1.6 8.0 0.00 0.00 0.00 85 1016.8
20260502231405 15 72 4.8 9.7 0.00 0.00 0.00 85 1016.7
20260502230904 15 104 3.2 12.9 0.00 0.00 0.00 85 1016.7
20260502225905 15 102 1.6 8.0 0.00 0.00 0.00 84 1016.8
20260502225405 15 102 8.0 14.5 0.00 0.00 0.00 84 1016.8
20260502224905 15 101 8.0 16.1 0.00 0.00 0.00 83 1016.7
20260502223407 16 116 4.8 16.1 0.00 0.00 0.00 83 1016.8
20260502222404 16 95 3.2 11.3 0.00 0.00 0.00 83 1016.7
20260502221905 16 99 4.8 11.3 0.00 0.00 0.00 83 1016.7
20260502221405 16 113 4.8 9.7 0.00 0.00 0.00 83 1016.7
20260502220404 16 107 1.6 8.0 0.00 0.00 0.00 83 1016.7
20260502215904 16 117 1.6 9.7 0.00 0.00 0.00 84 1016.7
20260502215404 16 132 1.6 11.3 0.00 0.00 0.00 84 1016.7
20260502214905 16 94 3.2 12.9 0.00 0.00 0.00 85 1016.7